Regional Weather Roundup
Issued by NWS

Home | Current Version | Previous Version | Graphics & Text | Print | Product List | Glossary On
Versions: 1 2 3 4 5 6 7 8 9 10 11 12 13 14 15 16 17 18 19 20 21 22 23 24 25 26 27 28 29 30 31 32 33 34 35 36 37 38 39 40 41 42 43 44 45 46 47 48 49 50
000
ASUS44 KMEG 271310
RWRTN
TENNESSEE HOURLY STATE WEATHER ROUNDUP
NATIONAL WEATHER SERVICE MEMPHIS TN
800 AM CDT FRI MAY 27 2016

TNZ002-004-019-021-049-052-054-088>092-271400-
WEST TENNESSEE

CITY           SKY/WX    TMP DP  RH WIND       PRES   REMARKS
MEMPHIS INTL   CLOUDY    75  69  81 S10G17    29.94R
NWS MEMPHIS      N/A     72 N/A N/A MISG        N/A
JACKSON        CLOUDY    72  66  81 S8        29.97R
DYERSBURG      CLOUDY    70  66  88 SE6       29.95R
UNION CITY     SUNNY     70  68  94 S8        29.96R
PARIS          SUNNY     66  63  88 SE10      29.98S
LEXINGTON      SUNNY     70  66  88 S6        29.99R
$$

TNZ008-025-027-028-033-062-065-066-271400-
NORTH MIDDLE TENNESSEE

CITY           SKY/WX    TMP DP  RH WIND       PRES   REMARKS
NASHVILLE      CLOUDY    74  63  68 SE7       30.05R
CLARKSVILLE    CLOUDY    70  65  84 SE7       30.01S
SMYRNA         MOSUNNY   73  65  76 S7        30.06S
COOKEVILLE     SUNNY     75  64  69 S7        30.08S
CROSSVILLE     SUNNY     72  63  73 VRB5      30.15R
$$

TNZ061-075-076-078-094-096-097-271400-
SOUTH MIDDLE TENNESSEE

CITY           SKY/WX    TMP DP  RH WIND       PRES   REMARKS
FAYETTEVILLE   SUNNY     73  64  73 S6        30.08R
TULLAHOMA      SUNNY     73  66  78 S8        30.09R
WINCHESTER     SUNNY     75  64  69 S7        30.09R
MCMINNVILLE    SUNNY     75  66  73 CALM      30.08F
COLUMBIA       SUNNY     73  73 100 S8        30.03R
SHELBYVILLE    SUNNY     75  64  69 S8        30.07S
$$

TNZ017-018-042-046-047-271400-
NORTHEAST TENNESSEE

CITY           SKY/WX    TMP DP  RH WIND       PRES   REMARKS
TRI CITIES     MOSUNNY   67  62  84 CALM      30.16R
$$

TNZ012-013-036-069-073-074-271400-
CENTRAL EAST TENNESSEE

CITY           SKY/WX    TMP DP  RH WIND       PRES   REMARKS
KNOXVILLE      MOSUNNY   70  64  81 NE7       30.12R
OAK RIDGE      SUNNY     71  63  75 CALM      30.14R
GATLINBURG     PTSUNNY   64  63  94 CALM      30.13R
$$

TNZ083-085-099-271400-
SOUTHEAST TENNESSEE

CITY           SKY/WX    TMP DP  RH WIND       PRES   REMARKS
CHATTANOOGA    PTSUNNY   74  64  71 CALM      30.10S
$$

SKY/WX REPORTED AS FAIR MEANS FEW OR NO CLOUDS BELOW
12 THOUSAND FEET.





USA.gov is the U.S. government's official web portal to all federal, state and local government web resources and services.